Time,TemperatureF,DewpointF,PressureIn,WindDirection,WindDirectionDegrees,WindSpeedMPH,WindSpeedGustMPH,Humidity,HourlyPrecipIn,Conditions,Clouds,dailyrainin,SoftwareType,DateUTC
2013-12-13 00:00:00,25.4,20.1,30.29,ENE,69,0.0,0.0,80,0.00,,,0.00,VWS V14.01,2013-12-13 05:00:00,
2013-12-13 00:05:00,26.9,20.0,30.29,ENE,69,0.0,0.0,75,0.00,,,0.00,VWS V14.01,2013-12-13 05:05:00,
2013-12-13 00:10:00,26.7,19.9,30.29,ENE,69,0.0,0.0,75,0.00,,,0.00,VWS V14.01,2013-12-13 05:10:00,
2013-12-13 00:15:00,26.7,19.9,30.29,ENE,69,0.0,0.0,75,0.00,,,0.00,VWS V14.01,2013-12-13 05:15:00,
2013-12-13 00:20:00,26.7,19.9,30.29,ENE,69,0.0,0.0,75,0.00,,,0.00,VWS V14.01,2013-12-13 05:20:00,
2013-12-13 00:25:00,26.6,19.8,30.29,ENE,69,0.0,0.0,75,0.00,,,0.00,VWS V14.01,2013-12-13 05:25:00,
2013-12-13 00:30:00,26.6,20.1,30.28,ENE,69,0.0,0.0,76,0.00,,,0.00,VWS V14.01,2013-12-13 05:30:00,
2013-12-13 00:35:00,26.4,19.9,30.28,ENE,69,0.0,0.0,76,0.00,,,0.00,VWS V14.01,2013-12-13 05:35:00,
2013-12-13 00:40:00,26.4,20.2,30.28,ENE,69,0.0,0.0,77,0.00,,,0.00,VWS V14.01,2013-12-13 05:40:00,
2013-12-13 00:45:00,26.3,20.1,30.28,ENE,69,0.0,0.0,77,0.00,,,0.00,VWS V14.01,2013-12-13 05:45:00,
2013-12-13 00:50:00,26.3,20.4,30.28,ENE,69,0.0,0.0,78,0.00,,,0.00,VWS V14.01,2013-12-13 05:50:00,
2013-12-13 00:55:00,26.1,20.2,30.28,ENE,69,0.0,0.0,78,0.00,,,0.00,VWS V14.01,2013-12-13 05:55:00,
2013-12-13 01:00:00,26.1,20.5,30.29,ENE,69,0.0,0.0,79,0.00,,,0.00,VWS V14.01,2013-12-13 06:00:00,
2013-12-13 01:05:00,26.0,20.4,30.29,ENE,69,0.0,0.0,79,0.00,,,0.00,VWS V14.01,2013-12-13 06:05:00,
2013-12-13 01:10:00,26.0,20.4,30.29,ENE,69,0.0,0.0,79,0.00,,,0.00,VWS V14.01,2013-12-13 06:10:00,
2013-12-13 01:15:00,25.8,20.2,30.30,ENE,69,0.0,0.0,79,0.00,,,0.00,VWS V14.01,2013-12-13 06:15:00,
2013-12-13 01:20:00,25.7,20.1,30.30,ENE,69,0.0,0.0,79,0.00,,,0.00,VWS V14.01,2013-12-13 06:20:00,
2013-12-13 01:25:00,25.7,20.1,30.30,ENE,69,0.0,0.0,79,0.00,,,0.00,VWS V14.01,2013-12-13 06:25:00,
2013-12-13 01:30:00,25.6,20.3,30.29,ENE,69,0.0,0.0,80,0.00,,,0.00,VWS V14.01,2013-12-13 06:30:00,
2013-12-13 01:35:00,25.6,20.3,30.29,ENE,69,0.0,0.0,80,0.00,,,0.00,VWS V14.01,2013-12-13 06:35:00,
2013-12-13 01:40:00,25.6,20.3,30.29,ENE,69,0.0,0.0,80,0.00,,,0.00,VWS V14.01,2013-12-13 06:40:00,
2013-12-13 01:45:00,25.6,20.3,30.29,ENE,69,0.0,0.0,80,0.00,,,0.00,VWS V14.01,2013-12-13 06:45:00,
2013-12-13 01:50:00,25.4,20.1,30.29,ENE,69,0.0,0.0,80,0.00,,,0.00,VWS V14.01,2013-12-13 06:50:00,
2013-12-13 01:55:00,25.4,20.1,30.29,ENE,69,0.0,0.0,80,0.00,,,0.00,VWS V14.01,2013-12-13 06:55:00,
2013-12-13 02:00:00,25.4,20.1,30.29,ENE,69,0.0,0.0,80,0.00,,,0.00,VWS V14.01,2013-12-13 07:00:00,
2013-12-13 02:05:00,25.4,20.1,30.29,ENE,69,0.0,0.0,80,0.00,,,0.00,VWS V14.01,2013-12-13 07:05:00,
2013-12-13 02:10:00,25.4,20.1,30.29,ENE,69,0.0,0.0,80,0.00,,,0.00,VWS V14.01,2013-12-13 07:10:00,
2013-12-13 02:15:00,25.3,20.0,30.29,ENE,69,0.0,0.0,80,0.00,,,0.00,VWS V14.01,2013-12-13 07:15:00,
2013-12-13 02:20:00,25.3,20.0,30.29,ENE,69,0.0,0.0,80,0.00,,,0.00,VWS V14.01,2013-12-13 07:20:00,
2013-12-13 02:25:00,25.1,19.8,30.29,ENE,69,0.0,0.0,80,0.00,,,0.00,VWS V14.01,2013-12-13 07:25:00,
2013-12-13 02:30:00,25.0,19.7,30.29,ENE,69,0.0,0.0,80,0.00,,,0.00,VWS V14.01,2013-12-13 07:30:00,
2013-12-13 02:35:00,25.1,20.1,30.29,ENE,69,0.0,0.0,81,0.00,,,0.00,VWS V14.01,2013-12-13 07:35:00,
2013-12-13 02:40:00,25.0,20.0,30.29,ENE,69,0.0,0.0,81,0.00,,,0.00,VWS V14.01,2013-12-13 07:40:00,
2013-12-13 02:45:00,25.0,20.0,30.28,ENE,69,0.0,0.0,81,0.00,,,0.00,VWS V14.01,2013-12-13 07:45:00,
2013-12-13 02:50:00,24.8,19.8,30.28,ENE,69,0.0,0.0,81,0.00,,,0.00,VWS V14.01,2013-12-13 07:50:00,
2013-12-13 02:55:00,24.8,19.8,30.28,ENE,69,0.0,0.0,81,0.00,,,0.00,VWS V14.01,2013-12-13 07:55:00,
2013-12-13 03:00:00,24.7,19.7,30.28,ENE,69,0.0,0.0,81,0.00,,,0.00,VWS V14.01,2013-12-13 08:00:00,
2013-12-13 03:05:00,24.7,19.7,30.28,ENE,69,0.0,0.0,81,0.00,,,0.00,VWS V14.01,2013-12-13 08:05:00,
2013-12-13 03:10:00,24.7,19.7,30.28,ENE,69,0.0,0.0,81,0.00,,,0.00,VWS V14.01,2013-12-13 08:10:00,
2013-12-13 03:15:00,24.7,19.7,30.28,ENE,69,0.0,0.0,81,0.00,,,0.00,VWS V14.01,2013-12-13 08:15:00,
2013-12-13 03:20:00,24.7,19.7,30.28,ENE,69,0.0,0.0,81,0.00,,,0.00,VWS V14.01,2013-12-13 08:20:00,
2013-12-13 03:25:00,24.5,19.5,30.28,ENE,69,0.0,0.0,81,0.00,,,0.00,VWS V14.01,2013-12-13 08:25:00,
2013-12-13 03:30:00,24.5,19.5,30.28,ENE,69,0.0,0.0,81,0.00,,,0.00,VWS V14.01,2013-12-13 08:30:00,
2013-12-13 03:35:00,24.4,19.4,30.28,ENE,69,0.0,0.0,81,0.00,,,0.00,VWS V14.01,2013-12-13 08:35:00,
2013-12-13 03:40:00,24.4,19.4,30.28,ENE,69,0.0,0.0,81,0.00,,,0.00,VWS V14.01,2013-12-13 08:40:00,
2013-12-13 03:45:00,24.4,19.4,30.28,ENE,69,0.0,0.0,81,0.00,,,0.00,VWS V14.01,2013-12-13 08:45:00,
2013-12-13 03:50:00,24.4,19.4,30.28,ENE,69,0.0,0.0,81,0.00,,,0.00,VWS V14.01,2013-12-13 08:50:00,
2013-12-13 03:55:00,24.4,19.4,30.28,ENE,69,0.0,0.0,81,0.00,,,0.00,VWS V14.01,2013-12-13 08:55:00,
2013-12-13 04:00:00,24.2,19.2,30.28,ENE,69,0.0,0.0,81,0.00,,,0.00,VWS V14.01,2013-12-13 09:00:00,
2013-12-13 04:05:00,24.2,19.5,30.28,ENE,69,0.0,0.0,82,0.00,,,0.00,VWS V14.01,2013-12-13 09:05:00,
2013-12-13 04:10:00,24.2,19.5,30.28,ENE,69,0.0,0.0,82,0.00,,,0.00,VWS V14.01,2013-12-13 09:10:00,
2013-12-13 04:15:00,24.4,19.7,30.29,ENE,69,0.0,0.0,82,0.00,,,0.00,VWS V14.01,2013-12-13 09:15:00,
2013-12-13 04:20:00,24.4,19.7,30.29,ENE,69,0.0,0.0,82,0.00,,,0.00,VWS V14.01,2013-12-13 09:20:00,
2013-12-13 04:25:00,24.4,19.7,30.29,ENE,69,0.0,0.0,82,0.00,,,0.00,VWS V14.01,2013-12-13 09:25:00,
2013-12-13 04:30:00,24.4,19.7,30.30,ENE,69,0.0,0.0,82,0.00,,,0.00,VWS V14.01,2013-12-13 09:30:00,
2013-12-13 04:35:00,24.5,19.5,30.30,ENE,69,0.0,0.0,81,0.00,,,0.00,VWS V14.01,2013-12-13 09:35:00,
2013-12-13 04:40:00,24.7,19.4,30.30,ENE,69,0.0,0.0,80,0.00,,,0.00,VWS V14.01,2013-12-13 09:40:00,
2013-12-13 04:45:00,24.8,19.2,30.30,ENE,69,0.0,0.0,79,0.00,,,0.00,VWS V14.01,2013-12-13 09:45:00,
2013-12-13 04:50:00,25.1,18.6,30.30,ENE,69,0.0,0.0,76,0.00,,,0.00,VWS V14.01,2013-12-13 09:50:00,
2013-12-13 04:55:00,25.3,18.5,30.30,ENE,69,0.0,0.0,75,0.00,,,0.00,VWS V14.01,2013-12-13 09:55:00,
2013-12-13 05:00:00,25.6,18.2,30.30,ENE,69,0.0,0.0,73,0.00,,,0.00,VWS V14.01,2013-12-13 10:00:00,
2013-12-13 05:05:00,25.8,18.0,30.30,ENE,69,0.0,0.0,72,0.00,,,0.00,VWS V14.01,2013-12-13 10:05:00,
2013-12-13 05:10:00,26.0,17.9,30.30,ENE,69,0.0,0.0,71,0.00,,,0.00,VWS V14.01,2013-12-13 10:10:00,
2013-12-13 05:15:00,26.1,17.3,30.30,ENE,69,0.0,1.0,69,0.00,,,0.00,VWS V14.01,2013-12-13 10:15:00,
2013-12-13 05:20:00,26.3,17.2,30.30,ENE,69,0.0,1.0,68,0.00,,,0.00,VWS V14.01,2013-12-13 10:20:00,
2013-12-13 05:25:00,26.3,16.5,30.30,ENE,69,0.0,1.0,66,0.00,,,0.00,VWS V14.01,2013-12-13 10:25:00,
2013-12-13 05:30:00,26.6,16.4,30.30,ENE,69,0.0,0.0,65,0.00,,,0.00,VWS V14.01,2013-12-13 10:30:00,
2013-12-13 05:35:00,27.0,16.1,30.30,ENE,67,0.0,4.0,63,0.00,,,0.00,VWS V14.01,2013-12-13 10:35:00,
2013-12-13 05:40:00,27.3,16.0,30.30,ENE,67,0.0,4.0,62,0.00,,,0.00,VWS V14.01,2013-12-13 10:40:00,
2013-12-13 05:45:00,27.6,15.9,30.30,ENE,64,0.0,5.0,61,0.00,,,0.00,VWS V14.01,2013-12-13 10:45:00,
2013-12-13 05:50:00,27.9,16.2,30.30,ENE,64,0.0,5.0,61,0.00,,,0.00,VWS V14.01,2013-12-13 10:50:00,
2013-12-13 05:55:00,28.2,16.1,30.30,ENE,63,0.0,5.0,60,0.00,,,0.00,VWS V14.01,2013-12-13 10:55:00,
2013-12-13 06:00:00,28.5,16.0,30.30,ENE,63,0.0,0.0,59,0.00,,,0.00,VWS V14.01,2013-12-13 11:00:00,
2013-12-13 06:05:00,28.7,15.8,30.30,ENE,63,0.0,0.0,58,0.00,,,0.00,VWS V14.01,2013-12-13 11:05:00,
2013-12-13 06:10:00,28.7,16.2,30.30,ENE,63,0.0,0.0,59,0.00,,,0.00,VWS V14.01,2013-12-13 11:10:00,
2013-12-13 06:15:00,28.8,16.3,30.30,ENE,63,0.0,0.0,59,0.00,,,0.00,VWS V14.01,2013-12-13 11:15:00,
2013-12-13 06:20:00,28.7,16.6,30.30,ENE,63,0.0,0.0,60,0.00,,,0.00,VWS V14.01,2013-12-13 11:20:00,
2013-12-13 06:25:00,28.7,16.6,30.30,ENE,63,0.0,0.0,60,0.00,,,0.00,VWS V14.01,2013-12-13 11:25:00,
2013-12-13 06:27:00,27.0,18.2,30.31,ENE,63,0.0,0.0,69,0.00,,,0.00,VWS V14.01,2013-12-13 11:27:00,
2013-12-13 06:28:00,27.0,18.2,30.31,ENE,63,0.0,0.0,69,0.00,,,0.00,VWS V14.01,2013-12-13 11:28:00,
2013-12-13 06:29:00,27.0,18.2,30.31,ENE,63,0.0,0.0,69,0.00,,,0.00,VWS V14.01,2013-12-13 11:29:00,
2013-12-13 06:30:00,28.5,16.4,30.30,ENE,63,0.0,0.0,60,0.00,,,0.00,VWS V14.01,2013-12-13 11:30:00,
2013-12-13 06:31:00,27.0,18.5,30.32,ENE,63,0.0,0.0,70,0.00,,,0.00,VWS V14.01,2013-12-13 11:31:00,
2013-12-13 06:35:00,28.5,17.1,30.30,ENE,63,0.0,0.0,62,0.00,,,0.00,VWS V14.01,2013-12-13 11:35:00,
2013-12-13 06:40:00,28.4,17.1,30.30,ENE,63,0.0,0.0,62,0.00,,,0.00,VWS V14.01,2013-12-13 11:40:00,
2013-12-13 06:45:00,28.2,17.6,30.30,ENE,63,0.0,0.0,64,0.00,,,0.00,VWS V14.01,2013-12-13 11:45:00,
2013-12-13 06:50:00,27.9,17.7,30.30,ENE,63,0.0,0.0,65,0.00,,,0.00,VWS V14.01,2013-12-13 11:50:00,
2013-12-13 06:55:00,27.8,17.9,30.30,ENE,63,0.0,0.0,66,0.00,,,0.00,VWS V14.01,2013-12-13 11:55:00,
2013-12-13 07:00:00,27.6,17.7,30.31,ENE,63,0.0,0.0,66,0.00,,,0.00,VWS V14.01,2013-12-13 12:00:00,
2013-12-13 07:05:00,27.5,18.0,30.31,ENE,63,0.0,0.0,67,0.00,,,0.00,VWS V14.01,2013-12-13 12:05:00,
2013-12-13 07:10:00,27.3,18.1,30.31,ENE,63,0.0,0.0,68,0.00,,,0.00,VWS V14.01,2013-12-13 12:10:00,
2013-12-13 07:15:00,27.2,18.0,30.31,ENE,63,0.0,0.0,68,0.00,,,0.00,VWS V14.01,2013-12-13 12:15:00,
2013-12-13 07:20:00,27.2,18.4,30.31,ENE,63,0.0,0.0,69,0.00,,,0.00,VWS V14.01,2013-12-13 12:20:00,
2013-12-13 07:25:00,27.0,18.2,30.31,ENE,63,0.0,0.0,69,0.00,,,0.00,VWS V14.01,2013-12-13 12:25:00,
2013-12-13 07:30:00,26.9,18.4,30.32,ENE,63,0.0,0.0,70,0.00,,,0.00,VWS V14.01,2013-12-13 12:30:00,
2013-12-13 07:35:00,26.9,18.4,30.32,ENE,63,0.0,0.0,70,0.00,,,0.00,VWS V14.01,2013-12-13 12:35:00,
2013-12-13 07:40:00,26.7,17.9,30.32,ENE,63,0.0,0.0,69,0.00,,,0.00,VWS V14.01,2013-12-13 12:40:00,
2013-12-13 07:45:00,26.6,17.8,30.32,ENE,63,0.0,0.0,69,0.00,,,0.00,VWS V14.01,2013-12-13 12:45:00,
2013-12-13 07:50:00,26.4,18.0,30.32,ENE,63,0.0,0.0,70,0.00,,,0.00,VWS V14.01,2013-12-13 12:50:00,
2013-12-13 07:55:00,26.4,18.6,30.32,ENE,63,0.0,0.0,72,0.00,,,0.00,VWS V14.01,2013-12-13 12:55:00,
2013-12-13 08:00:00,27.2,19.1,30.32,ENE,63,0.0,0.0,71,0.00,,,0.00,VWS V14.01,2013-12-13 13:00:00,
2013-12-13 08:05:00,28.1,18.9,30.32,ENE,63,0.0,1.0,68,0.00,,,0.00,VWS V14.01,2013-12-13 13:05:00,
2013-12-13 08:10:00,29.0,18.4,30.32,ENE,63,0.0,1.0,64,0.00,,,0.00,VWS V14.01,2013-12-13 13:10:00,
2013-12-13 08:15:00,29.5,18.1,30.33,ENE,63,0.0,1.0,62,0.00,,,0.00,VWS V14.01,2013-12-13 13:15:00,
2013-12-13 08:20:00,30.0,18.2,30.33,ENE,63,0.0,1.0,61,0.00,,,0.00,VWS V14.01,2013-12-13 13:20:00,
2013-12-13 08:25:00,31.6,17.7,30.33,ENE,63,0.0,2.0,56,0.00,,,0.00,VWS V14.01,2013-12-13 13:25:00,
2013-12-13 08:30:00,32.2,17.0,30.33,ENE,63,0.0,0.0,53,0.00,,,0.00,VWS V14.01,2013-12-13 13:30:00,
2013-12-13 08:35:00,32.9,15.9,30.33,ENE,63,0.0,3.0,49,0.00,,,0.00,VWS V14.01,2013-12-13 13:35:00,
2013-12-13 08:40:00,33.4,15.8,30.33,ENE,63,0.0,4.0,48,0.00,,,0.00,VWS V14.01,2013-12-13 13:40:00,
2013-12-13 08:45:00,33.8,15.7,30.33,ENE,63,0.0,4.0,47,0.00,,,0.00,VWS V14.01,2013-12-13 13:45:00,
2013-12-13 08:50:00,34.4,15.8,30.33,ENE,63,0.0,4.0,46,0.00,,,0.00,VWS V14.01,2013-12-13 13:50:00,
2013-12-13 08:55:00,34.7,15.6,30.33,ENE,62,0.0,4.0,45,0.00,,,0.00,VWS V14.01,2013-12-13 13:55:00,
2013-12-13 09:00:00,35.0,15.8,30.33,NE,51,0.0,6.0,45,0.00,,,0.00,VWS V14.01,2013-12-13 14:00:00,
2013-12-13 09:05:00,35.5,16.8,30.33,NE,51,0.0,6.0,46,0.00,,,0.00,VWS V14.01,2013-12-13 14:05:00,
2013-12-13 09:10:00,35.9,16.6,30.33,NE,51,0.0,6.0,45,0.00,,,0.00,VWS V14.01,2013-12-13 14:10:00,
2013-12-13 09:15:00,36.3,16.5,30.33,NE,47,0.0,6.0,44,0.00,,,0.00,VWS V14.01,2013-12-13 14:15:00,
2013-12-13 09:20:00,37.0,16.6,30.33,NE,46,0.0,6.0,43,0.00,,,0.00,VWS V14.01,2013-12-13 14:20:00,
2013-12-13 09:25:00,37.5,17.0,30.33,NE,46,0.0,6.0,43,0.00,,,0.00,VWS V14.01,2013-12-13 14:25:00,
2013-12-13 09:30:00,38.0,16.4,30.33,NE,46,0.0,1.0,41,0.00,,,0.00,VWS V14.01,2013-12-13 14:30:00,
2013-12-13 09:35:00,38.3,16.1,30.33,NE,35,0.0,1.0,40,0.00,,,0.00,VWS V14.01,2013-12-13 14:35:00,
2013-12-13 09:40:00,39.1,18.0,30.33,NE,35,0.0,1.0,42,0.00,,,0.00,VWS V14.01,2013-12-13 14:40:00,
2013-12-13 09:45:00,39.3,17.0,30.33,North,5,0.0,1.0,40,0.00,,,0.00,VWS V14.01,2013-12-13 14:45:00,
2013-12-13 09:50:00,39.8,16.3,30.33,North,5,0.0,1.0,38,0.00,,,0.00,VWS V14.01,2013-12-13 14:50:00,
2013-12-13 09:55:00,40.1,16.5,30.33,North,9,0.0,3.0,38,0.00,,,0.00,VWS V14.01,2013-12-13 14:55:00,
2013-12-13 10:00:00,40.5,16.9,30.33,North,5,0.0,3.0,38,0.00,,,0.00,VWS V14.01,2013-12-13 15:00:00,
2013-12-13 10:05:00,40.8,15.9,30.33,North,355,0.0,3.0,36,0.00,,,0.00,VWS V14.01,2013-12-13 15:05:00,
2013-12-13 10:10:00,41.3,16.4,30.33,North,5,3.0,3.0,36,0.00,,,0.00,VWS V14.01,2013-12-13 15:10:00,
2013-12-13 10:15:00,41.9,15.6,30.33,NNW,348,0.0,5.0,34,0.00,,,0.00,VWS V14.01,2013-12-13 15:15:00,
2013-12-13 10:20:00,42.3,15.3,30.33,North,349,0.0,5.0,33,0.00,,,0.00,VWS V14.01,2013-12-13 15:20:00,
2013-12-13 10:25:00,42.9,15.1,30.33,North,5,0.0,5.0,32,0.00,,,0.00,VWS V14.01,2013-12-13 15:25:00,
2013-12-13 10:30:00,43.3,15.4,30.33,North,9,2.0,2.0,32,0.00,,,0.00,VWS V14.01,2013-12-13 15:30:00,
2013-12-13 10:35:00,43.8,15.1,30.33,North,5,6.0,6.0,31,0.00,,,0.00,VWS V14.01,2013-12-13 15:35:00,
2013-12-13 10:40:00,44.2,15.5,30.33,NNE,13,0.0,6.0,31,0.00,,,0.00,VWS V14.01,2013-12-13 15:40:00,
2013-12-13 10:45:00,44.8,15.3,30.31,North,11,0.0,6.0,30,0.00,,,0.00,VWS V14.01,2013-12-13 15:45:00,
2013-12-13 10:50:00,45.5,14.3,30.31,NNW,348,0.0,6.0,28,0.00,,,0.00,VWS V14.01,2013-12-13 15:50:00,
2013-12-13 10:55:00,45.8,13.7,30.31,North,360,0.0,6.0,27,0.00,,,0.00,VWS V14.01,2013-12-13 15:55:00,
2013-12-13 11:00:00,46.1,14.8,30.30,NNW,340,0.0,1.0,28,0.00,,,0.00,VWS V14.01,2013-12-13 16:00:00,
2013-12-13 11:05:00,46.4,15.1,30.30,NNE,13,0.0,1.0,28,0.00,,,0.00,VWS V14.01,2013-12-13 16:05:00,
2013-12-13 11:10:00,46.7,15.3,30.30,NNW,333,0.0,1.0,28,0.00,,,0.00,VWS V14.01,2013-12-13 16:10:00,
2013-12-13 11:15:00,47.0,14.8,30.30,North,360,0.0,1.0,27,0.00,,,0.00,VWS V14.01,2013-12-13 16:15:00,
2013-12-13 11:20:00,47.1,14.9,30.30,NNW,332,0.0,1.0,27,0.00,,,0.00,VWS V14.01,2013-12-13 16:20:00,
2013-12-13 11:25:00,47.6,15.3,30.30,NNW,331,0.0,1.0,27,0.00,,,0.00,VWS V14.01,2013-12-13 16:25:00,
2013-12-13 11:30:00,48.0,15.6,30.30,NW,321,0.0,0.0,27,0.00,,,0.00,VWS V14.01,2013-12-13 16:30:00,
2013-12-13 11:35:00,48.2,14.9,30.30,NNE,20,0.0,0.0,26,0.00,,,0.00,VWS V14.01,2013-12-13 16:35:00,
2013-12-13 11:40:00,48.5,15.2,30.30,NNW,334,0.0,0.0,26,0.00,,,0.00,VWS V14.01,2013-12-13 16:40:00,
2013-12-13 11:45:00,48.8,14.6,30.28,NW,322,0.0,0.0,25,0.00,,,0.00,VWS V14.01,2013-12-13 16:45:00,
2013-12-13 11:50:00,48.6,15.3,30.28,NW,314,0.0,0.0,26,0.00,,,0.00,VWS V14.01,2013-12-13 16:50:00,
2013-12-13 11:55:00,48.5,15.2,30.28,NNE,20,0.0,0.0,26,0.00,,,0.00,VWS V14.01,2013-12-13 16:55:00,
2013-12-13 12:00:00,48.5,15.2,30.27,ENE,58,0.0,0.0,26,0.00,,,0.00,VWS V14.01,2013-12-13 17:00:00,
2013-12-13 12:05:00,48.3,15.0,30.27,NNE,15,0.0,0.0,26,0.00,,,0.00,VWS V14.01,2013-12-13 17:05:00,
2013-12-13 12:10:00,48.6,14.4,30.27,NNE,19,0.0,0.0,25,0.00,,,0.00,VWS V14.01,2013-12-13 17:10:00,
2013-12-13 12:15:00,48.6,15.3,30.26,NNE,22,0.0,0.0,26,0.00,,,0.00,VWS V14.01,2013-12-13 17:15:00,
2013-12-13 12:20:00,48.8,15.4,30.26,NNE,31,0.0,2.0,26,0.00,,,0.00,VWS V14.01,2013-12-13 17:20:00,
2013-12-13 12:25:00,48.9,15.5,30.26,North,355,0.0,2.0,26,0.00,,,0.00,VWS V14.01,2013-12-13 17:25:00,
2013-12-13 12:30:00,49.1,14.8,30.26,NW,320,0.0,2.0,25,0.00,,,0.00,VWS V14.01,2013-12-13 17:30:00,
2013-12-13 12:35:00,49.2,14.9,30.26,NNW,340,0.0,2.0,25,0.00,,,0.00,VWS V14.01,2013-12-13 17:35:00,
2013-12-13 12:40:00,49.4,15.1,30.26,WNW,302,0.0,2.0,25,0.00,,,0.00,VWS V14.01,2013-12-13 17:40:00,
2013-12-13 12:45:00,49.6,15.2,30.25,North,350,0.0,2.0,25,0.00,,,0.00,VWS V14.01,2013-12-13 17:45:00,
2013-12-13 12:50:00,49.9,15.5,30.25,NNW,334,0.0,2.0,25,0.00,,,0.00,VWS V14.01,2013-12-13 17:50:00,
2013-12-13 12:55:00,50.2,15.8,30.25,NNW,340,0.0,2.0,25,0.00,,,0.00,VWS V14.01,2013-12-13 17:55:00,
2013-12-13 13:00:00,50.5,16.0,30.25,NNW,340,0.0,0.0,25,0.00,,,0.00,VWS V14.01,2013-12-13 18:00:00,
2013-12-13 13:05:00,50.8,15.3,30.25,NNW,342,0.0,0.0,24,0.00,,,0.00,VWS V14.01,2013-12-13 18:05:00,
2013-12-13 13:10:00,50.8,15.3,30.25,NNW,342,0.0,0.0,24,0.00,,,0.00,VWS V14.01,2013-12-13 18:10:00,
2013-12-13 13:15:00,51.0,15.5,30.23,North,351,0.0,0.0,24,0.00,,,0.00,VWS V14.01,2013-12-13 18:15:00,
2013-12-13 13:20:00,51.1,15.6,30.23,NW,321,0.0,0.0,24,0.00,,,0.00,VWS V14.01,2013-12-13 18:20:00,
2013-12-13 13:25:00,51.3,15.8,30.23,NW,319,0.0,0.0,24,0.00,,,0.00,VWS V14.01,2013-12-13 18:25:00,
2013-12-13 13:30:00,51.4,14.9,30.23,NNE,12,0.0,0.0,23,0.00,,,0.00,VWS V14.01,2013-12-13 18:30:00,
2013-12-13 13:35:00,51.3,15.8,30.23,NNW,329,0.0,0.0,24,0.00,,,0.00,VWS V14.01,2013-12-13 18:35:00,
2013-12-13 13:40:00,51.7,16.1,30.23,NNW,329,0.0,0.0,24,0.00,,,0.00,VWS V14.01,2013-12-13 18:40:00,
2013-12-13 13:45:00,51.9,16.3,30.22,NW,321,0.0,0.0,24,0.00,,,0.00,VWS V14.01,2013-12-13 18:45:00,
2013-12-13 13:50:00,51.7,16.1,30.22,North,355,0.0,0.0,24,0.00,,,0.00,VWS V14.01,2013-12-13 18:50:00,
2013-12-13 13:55:00,52.0,17.3,30.22,NW,322,0.0,0.0,25,0.00,,,0.00,VWS V14.01,2013-12-13 18:55:00,
2013-12-13 14:00:00,52.2,17.5,30.22,NNE,13,0.0,0.0,25,0.00,,,0.00,VWS V14.01,2013-12-13 19:00:00,
2013-12-13 14:05:00,52.2,17.5,30.22,NNE,27,0.0,0.0,25,0.00,,,0.00,VWS V14.01,2013-12-13 19:05:00,
2013-12-13 14:10:00,51.9,16.3,30.22,ENE,60,0.0,0.0,24,0.00,,,0.00,VWS V14.01,2013-12-13 19:10:00,
2013-12-13 14:15:00,52.0,17.3,30.22,NNW,343,0.0,0.0,25,0.00,,,0.00,VWS V14.01,2013-12-13 19:15:00,
2013-12-13 14:20:00,52.0,17.3,30.22,North,5,1.0,1.0,25,0.00,,,0.00,VWS V14.01,2013-12-13 19:20:00,
2013-12-13 14:25:00,52.2,17.5,30.22,North,5,0.0,1.0,25,0.00,,,0.00,VWS V14.01,2013-12-13 19:25:00,
2013-12-13 14:30:00,52.3,17.5,30.21,North,360,0.0,0.0,25,0.00,,,0.00,VWS V14.01,2013-12-13 19:30:00,
2013-12-13 14:35:00,52.5,16.8,30.21,NNW,331,0.0,0.0,24,0.00,,,0.00,VWS V14.01,2013-12-13 19:35:00,
2013-12-13 14:40:00,52.6,16.9,30.21,NNW,333,0.0,0.0,24,0.00,,,0.00,VWS V14.01,2013-12-13 19:40:00,
2013-12-13 14:45:00,52.6,16.9,30.21,NNE,20,0.0,0.0,24,0.00,,,0.00,VWS V14.01,2013-12-13 19:45:00,
2013-12-13 14:50:00,52.5,16.8,30.21,NNW,332,0.0,0.0,24,0.00,,,0.00,VWS V14.01,2013-12-13 19:50:00,
2013-12-13 14:55:00,52.3,16.6,30.21,North,5,0.0,0.0,24,0.00,,,0.00,VWS V14.01,2013-12-13 19:55:00,
2013-12-13 15:00:00,52.3,17.5,30.21,NNE,20,0.0,0.0,25,0.00,,,0.00,VWS V14.01,2013-12-13 20:00:00,
2013-12-13 15:05:00,52.5,17.7,30.21,NNE,15,0.0,0.0,25,0.00,,,0.00,VWS V14.01,2013-12-13 20:05:00,
2013-12-13 15:10:00,52.6,16.9,30.21,NNE,15,0.0,0.0,24,0.00,,,0.00,VWS V14.01,2013-12-13 20:10:00,
2013-12-13 15:15:00,52.6,17.8,30.21,NE,45,0.0,0.0,25,0.00,,,0.00,VWS V14.01,2013-12-13 20:15:00,
2013-12-13 15:20:00,52.6,17.8,30.21,NNE,17,0.0,0.0,25,0.00,,,0.00,VWS V14.01,2013-12-13 20:20:00,
2013-12-13 15:25:00,52.8,18.0,30.21,NNE,14,0.0,0.0,25,0.00,,,0.00,VWS V14.01,2013-12-13 20:25:00,
2013-12-13 15:30:00,52.8,18.0,30.21,NNE,17,0.0,0.0,25,0.00,,,0.00,VWS V14.01,2013-12-13 20:30:00,
2013-12-13 15:35:00,52.6,17.8,30.21,NNE,17,0.0,0.0,25,0.00,,,0.00,VWS V14.01,2013-12-13 20:35:00,
2013-12-13 15:40:00,52.6,17.8,30.21,NNE,17,0.0,0.0,25,0.00,,,0.00,VWS V14.01,2013-12-13 20:40:00,
2013-12-13 15:45:00,52.5,18.6,30.21,NW,315,0.0,0.0,26,0.00,,,0.00,VWS V14.01,2013-12-13 20:45:00,
2013-12-13 15:50:00,52.0,17.3,30.21,North,350,0.0,0.0,25,0.00,,,0.00,VWS V14.01,2013-12-13 20:50:00,
2013-12-13 15:55:00,51.6,17.9,30.21,North,351,0.0,0.0,26,0.00,,,0.00,VWS V14.01,2013-12-13 20:55:00,
2013-12-13 16:00:00,51.4,18.6,30.21,North,351,0.0,0.0,27,0.00,,,0.00,VWS V14.01,2013-12-13 21:00:00,
2013-12-13 16:05:00,51.1,19.1,30.21,North,351,0.0,0.0,28,0.00,,,0.00,VWS V14.01,2013-12-13 21:05:00,
2013-12-13 16:10:00,51.0,19.1,30.21,North,351,0.0,0.0,28,0.00,,,0.00,VWS V14.01,2013-12-13 21:10:00,
2013-12-13 16:15:00,51.0,18.2,30.21,North,351,0.0,0.0,27,0.00,,,0.00,VWS V14.01,2013-12-13 21:15:00,
2013-12-13 16:19:00,50.8,18.9,30.21,North,351,0.0,0.0,28,0.00,,,0.00,VWS V14.01,2013-12-13 21:19:00,
2013-12-13 16:25:00,50.5,18.6,30.21,North,351,0.0,0.0,28,0.00,,,0.00,VWS V14.01,2013-12-13 21:25:00,
2013-12-13 16:30:00,50.4,19.4,30.21,North,351,0.0,0.0,29,0.00,,,0.00,VWS V14.01,2013-12-13 21:30:00,
2013-12-13 16:35:00,50.2,19.2,30.21,North,351,0.0,0.0,29,0.00,,,0.00,VWS V14.01,2013-12-13 21:35:00,
2013-12-13 16:40:00,50.1,19.9,30.21,North,351,0.0,0.0,30,0.00,,,0.00,VWS V14.01,2013-12-13 21:40:00,
2013-12-13 16:45:00,49.9,19.7,30.21,North,351,0.0,0.0,30,0.00,,,0.00,VWS V14.01,2013-12-13 21:45:00,
2013-12-13 16:49:00,49.8,20.4,30.21,North,351,0.0,0.0,31,0.00,,,0.00,VWS V14.01,2013-12-13 21:49:00,
2013-12-13 16:54:00,49.5,20.1,30.21,North,351,0.0,0.0,31,0.00,,,0.00,VWS V14.01,2013-12-13 21:54:00,
2013-12-13 16:59:00,49.4,20.8,30.21,North,351,0.0,0.0,32,0.00,,,0.00,VWS V14.01,2013-12-13 21:59:00,
2013-12-13 17:00:00,40.5,24.7,30.22,North,351,0.0,0.0,53,0.00,,,0.00,VWS V14.01,2013-12-13 22:00:00,
2013-12-13 17:05:00,49.1,20.5,30.21,North,351,0.0,0.0,32,0.00,,,0.00,VWS V14.01,2013-12-13 22:05:00,
2013-12-13 17:09:00,48.8,21.7,30.21,North,351,0.0,0.0,34,0.00,,,0.00,VWS V14.01,2013-12-13 22:09:00,
2013-12-13 17:14:00,48.5,22.1,30.21,North,351,0.0,0.0,35,0.00,,,0.00,VWS V14.01,2013-12-13 22:14:00,
2013-12-13 17:19:00,48.0,22.3,30.21,North,351,0.0,0.0,36,0.00,,,0.00,VWS V14.01,2013-12-13 22:19:00,
2013-12-13 17:24:00,47.7,22.1,30.21,North,351,0.0,0.0,36,0.00,,,0.00,VWS V14.01,2013-12-13 22:24:00,
2013-12-13 17:30:00,47.4,23.1,30.21,North,351,0.0,0.0,38,0.00,,,0.00,VWS V14.01,2013-12-13 22:30:00,
2013-12-13 17:35:00,47.0,23.3,30.21,North,351,0.0,0.0,39,0.00,,,0.00,VWS V14.01,2013-12-13 22:35:00,
2013-12-13 17:40:00,46.7,23.1,30.21,North,351,0.0,0.0,39,0.00,,,0.00,VWS V14.01,2013-12-13 22:40:00,
2013-12-13 17:45:00,46.1,23.7,30.21,North,351,0.0,0.0,41,0.00,,,0.00,VWS V14.01,2013-12-13 22:45:00,
2013-12-13 17:50:00,45.7,24.5,30.21,North,351,0.0,0.0,43,0.00,,,0.00,VWS V14.01,2013-12-13 22:50:00,
2013-12-13 17:55:00,45.1,25.0,30.21,North,351,0.0,0.0,45,0.00,,,0.00,VWS V14.01,2013-12-13 22:55:00,
2013-12-13 18:00:00,44.5,25.0,30.22,North,351,0.0,0.0,46,0.00,,,0.00,VWS V14.01,2013-12-13 23:00:00,
2013-12-13 18:05:00,44.1,24.7,30.22,North,351,0.0,0.0,46,0.00,,,0.00,VWS V14.01,2013-12-13 23:05:00,
2013-12-13 18:10:00,43.6,25.2,30.22,North,351,0.0,0.0,48,0.00,,,0.00,VWS V14.01,2013-12-13 23:10:00,
2013-12-13 18:15:00,43.2,24.9,30.22,North,351,0.0,0.0,48,0.00,,,0.00,VWS V14.01,2013-12-13 23:15:00,
2013-12-13 18:20:00,42.9,24.6,30.22,North,351,0.0,0.0,48,0.00,,,0.00,VWS V14.01,2013-12-13 23:20:00,
2013-12-13 18:25:00,42.6,24.3,30.22,North,351,0.0,0.0,48,0.00,,,0.00,VWS V14.01,2013-12-13 23:25:00,
2013-12-13 18:30:00,42.2,24.4,30.22,North,351,0.0,0.0,49,0.00,,,0.00,VWS V14.01,2013-12-13 23:30:00,
2013-12-13 18:35:00,41.9,24.1,30.22,North,351,0.0,0.0,49,0.00,,,0.00,VWS V14.01,2013-12-13 23:35:00,
2013-12-13 18:40:00,41.5,25.2,30.22,North,351,0.0,0.0,52,0.00,,,0.00,VWS V14.01,2013-12-13 23:40:00,
2013-12-13 18:45:00,41.1,24.8,30.23,North,351,0.0,0.0,52,0.00,,,0.00,VWS V14.01,2013-12-13 23:45:00,
2013-12-13 18:50:00,40.8,25.0,30.23,North,351,0.0,0.0,53,0.00,,,0.00,VWS V14.01,2013-12-13 23:50:00,
2013-12-13 18:55:00,40.6,24.8,30.23,North,351,0.0,0.0,53,0.00,,,0.00,VWS V14.01,2013-12-13 23:55:00,
2013-12-13 18:59:00,40.3,25.4,30.22,North,351,0.0,0.0,55,0.00,,,0.00,VWS V14.01,2013-12-13 23:59:00,
2013-12-13 19:00:00,36.6,27.0,30.25,North,351,0.0,0.0,68,0.00,,,0.00,VWS V14.01,2013-12-14 00:00:00,
2013-12-13 19:04:00,40.1,25.2,30.22,North,351,0.0,0.0,55,0.00,,,0.00,VWS V14.01,2013-12-14 00:04:00,
2013-12-13 19:09:00,39.8,25.4,30.22,North,351,0.0,0.0,56,0.00,,,0.00,VWS V14.01,2013-12-14 00:09:00,
2013-12-13 19:15:00,39.5,25.1,30.23,North,351,0.0,0.0,56,0.00,,,0.00,VWS V14.01,2013-12-14 00:15:00,
2013-12-13 19:16:00,36.9,25.5,30.24,North,351,0.0,0.0,63,0.00,,,0.00,VWS V14.01,2013-12-14 00:16:00,
2013-12-13 19:17:00,36.9,25.5,30.24,North,351,0.0,0.0,63,0.00,,,0.00,VWS V14.01,2013-12-14 00:17:00,
2013-12-13 19:18:00,36.9,25.5,30.24,North,351,0.0,0.0,63,0.00,,,0.00,VWS V14.01,2013-12-14 00:18:00,
2013-12-13 19:19:00,39.2,25.3,30.23,North,351,0.0,0.0,57,0.00,,,0.00,VWS V14.01,2013-12-14 00:19:00,
2013-12-13 19:20:00,36.8,25.4,30.24,North,351,0.0,0.0,63,0.00,,,0.00,VWS V14.01,2013-12-14 00:20:00,
2013-12-13 19:21:00,36.8,25.4,30.24,North,351,0.0,0.0,63,0.00,,,0.00,VWS V14.01,2013-12-14 00:21:00,
2013-12-13 19:22:00,36.8,25.4,30.24,North,351,0.0,0.0,63,0.00,,,0.00,VWS V14.01,2013-12-14 00:22:00,
2013-12-13 19:25:00,39.1,25.2,30.23,North,351,0.0,0.0,57,0.00,,,0.00,VWS V14.01,2013-12-14 00:25:00,
2013-12-13 19:29:00,38.8,25.3,30.23,North,351,0.0,0.0,58,0.00,,,0.00,VWS V14.01,2013-12-14 00:29:00,
2013-12-13 19:30:00,37.3,27.4,30.24,North,351,0.0,0.0,67,0.00,,,0.00,VWS V14.01,2013-12-14 00:30:00,
2013-12-13 19:34:00,38.6,25.1,30.23,North,351,0.0,0.0,58,0.00,,,0.00,VWS V14.01,2013-12-14 00:34:00,
2013-12-13 19:39:00,38.3,25.2,30.23,North,351,0.0,0.0,59,0.00,,,0.00,VWS V14.01,2013-12-14 00:39:00,
2013-12-13 19:44:00,38.2,25.5,30.24,North,351,0.0,0.0,60,0.00,,,0.00,VWS V14.01,2013-12-14 00:44:00,
2013-12-13 19:49:00,37.9,26.1,30.24,North,351,0.0,0.0,62,0.00,,,0.00,VWS V14.01,2013-12-14 00:49:00,
2013-12-13 19:54:00,37.8,25.6,30.24,North,351,0.0,0.0,61,0.00,,,0.00,VWS V14.01,2013-12-14 00:54:00,
2013-12-13 19:59:00,37.6,25.4,30.24,North,351,0.0,0.0,61,0.00,,,0.00,VWS V14.01,2013-12-14 00:59:00,
2013-12-13 20:00:00,38.2,28.2,30.23,North,351,0.0,0.0,67,0.00,,,0.00,VWS V14.01,2013-12-14 01:00:00,
2013-12-13 20:04:00,37.3,25.1,30.24,North,351,0.0,0.0,61,0.00,,,0.00,VWS V14.01,2013-12-14 01:04:00,
2013-12-13 20:09:00,37.2,25.4,30.24,North,351,0.0,0.0,62,0.00,,,0.00,VWS V14.01,2013-12-14 01:09:00,
2013-12-13 20:14:00,36.9,25.5,30.24,North,351,0.0,0.0,63,0.00,,,0.00,VWS V14.01,2013-12-14 01:14:00,
2013-12-13 20:19:00,36.6,24.8,30.24,North,351,0.0,0.0,62,0.00,,,0.00,VWS V14.01,2013-12-14 01:19:00,
2013-12-13 20:24:00,36.5,24.7,30.24,North,351,0.0,0.0,62,0.00,,,0.00,VWS V14.01,2013-12-14 01:24:00,
2013-12-13 20:29:00,36.3,25.3,30.23,North,351,0.0,0.0,64,0.00,,,0.00,VWS V14.01,2013-12-14 01:29:00,
2013-12-13 20:30:00,38.6,28.6,30.24,North,351,0.0,0.0,67,0.00,,,0.00,VWS V14.01,2013-12-14 01:30:00,
2013-12-13 20:34:00,36.3,25.7,30.23,North,351,0.0,0.0,65,0.00,,,0.00,VWS V14.01,2013-12-14 01:34:00,
2013-12-13 20:39:00,36.3,26.0,30.23,North,351,0.0,0.0,66,0.00,,,0.00,VWS V14.01,2013-12-14 01:39:00,
2013-12-13 20:44:00,36.3,26.0,30.25,North,351,0.0,0.0,66,0.00,,,0.00,VWS V14.01,2013-12-14 01:44:00,
2013-12-13 20:49:00,36.5,26.2,30.25,North,351,0.0,0.0,66,0.00,,,0.00,VWS V14.01,2013-12-14 01:49:00,
2013-12-13 20:54:00,36.6,27.0,30.25,North,351,0.0,0.0,68,0.00,,,0.00,VWS V14.01,2013-12-14 01:54:00,
2013-12-13 20:59:00,36.8,26.9,30.25,North,351,0.0,0.0,67,0.00,,,0.00,VWS V14.01,2013-12-14 01:59:00,
2013-12-13 21:00:00,38.5,28.1,30.25,North,351,0.0,0.0,66,0.00,,,0.00,VWS V14.01,2013-12-14 02:00:00,
2013-12-13 21:04:00,36.9,27.0,30.25,North,351,0.0,0.0,67,0.00,,,0.00,VWS V14.01,2013-12-14 02:04:00,
2013-12-13 21:09:00,36.9,26.6,30.25,North,351,0.0,0.0,66,0.00,,,0.00,VWS V14.01,2013-12-14 02:09:00,
2013-12-13 21:14:00,37.0,27.1,30.25,North,351,0.0,0.0,67,0.00,,,0.00,VWS V14.01,2013-12-14 02:14:00,
2013-12-13 21:19:00,37.2,27.3,30.25,North,351,0.0,0.0,67,0.00,,,0.00,VWS V14.01,2013-12-14 02:19:00,
2013-12-13 21:24:00,37.3,27.4,30.25,North,351,0.0,0.0,67,0.00,,,0.00,VWS V14.01,2013-12-14 02:24:00,
2013-12-13 21:29:00,37.3,27.0,30.24,North,351,0.0,0.0,66,0.00,,,0.00,VWS V14.01,2013-12-14 02:29:00,
2013-12-13 21:30:00,39.1,28.0,30.24,North,351,0.0,0.0,64,0.00,,,0.00,VWS V14.01,2013-12-14 02:30:00,
2013-12-13 21:34:00,37.5,27.2,30.24,North,351,0.0,0.0,66,0.00,,,0.00,VWS V14.01,2013-12-14 02:34:00,
2013-12-13 21:39:00,37.6,27.3,30.24,North,351,0.0,0.0,66,0.00,,,0.00,VWS V14.01,2013-12-14 02:39:00,
2013-12-13 21:44:00,37.8,27.5,30.24,North,351,0.0,0.0,66,0.00,,,0.00,VWS V14.01,2013-12-14 02:44:00,
2013-12-13 21:49:00,38.0,28.4,30.24,North,351,0.0,0.0,68,0.00,,,0.00,VWS V14.01,2013-12-14 02:49:00,
2013-12-13 21:54:00,38.2,28.2,30.24,North,351,0.0,0.0,67,0.00,,,0.00,VWS V14.01,2013-12-14 02:54:00,
2013-12-13 21:59:00,38.2,28.2,30.23,North,351,0.0,0.0,67,0.00,,,0.00,VWS V14.01,2013-12-14 02:59:00,
2013-12-13 22:00:00,39.1,28.0,30.24,North,351,0.0,0.0,64,0.00,,,0.00,VWS V14.01,2013-12-14 03:00:00,
2013-12-13 22:04:00,38.3,27.6,30.23,North,351,0.0,0.0,65,0.00,,,0.00,VWS V14.01,2013-12-14 03:04:00,
2013-12-13 22:09:00,38.3,27.6,30.23,North,351,0.0,0.0,65,0.00,,,0.00,VWS V14.01,2013-12-14 03:09:00,
2013-12-13 22:14:00,38.5,27.8,30.23,North,351,0.0,0.0,65,0.00,,,0.00,VWS V14.01,2013-12-14 03:14:00,
2013-12-13 22:19:00,38.5,27.8,30.23,North,351,0.0,0.0,65,0.00,,,0.00,VWS V14.01,2013-12-14 03:19:00,
2013-12-13 22:24:00,38.6,28.6,30.23,North,351,0.0,0.0,67,0.00,,,0.00,VWS V14.01,2013-12-14 03:24:00,
2013-12-13 22:29:00,38.6,28.6,30.24,North,351,0.0,0.0,67,0.00,,,0.00,VWS V14.01,2013-12-14 03:29:00,
2013-12-13 22:30:00,38.6,27.9,30.23,North,351,0.0,0.0,65,0.00,,,0.00,VWS V14.01,2013-12-14 03:30:00,
2013-12-13 22:34:00,38.6,28.2,30.24,North,351,0.0,0.0,66,0.00,,,0.00,VWS V14.01,2013-12-14 03:34:00,
2013-12-13 22:39:00,38.6,28.2,30.24,North,351,0.0,0.0,66,0.00,,,0.00,VWS V14.01,2013-12-14 03:39:00,
2013-12-13 22:44:00,38.6,27.9,30.25,North,351,0.0,0.0,65,0.00,,,0.00,VWS V14.01,2013-12-14 03:44:00,
2013-12-13 22:49:00,38.5,27.4,30.25,North,351,0.0,0.0,64,0.00,,,0.00,VWS V14.01,2013-12-14 03:49:00,
2013-12-13 22:54:00,38.5,27.8,30.25,North,351,0.0,0.0,65,0.00,,,0.00,VWS V14.01,2013-12-14 03:54:00,
2013-12-13 22:59:00,38.5,28.1,30.25,North,351,0.0,0.0,66,0.00,,,0.00,VWS V14.01,2013-12-14 03:59:00,
2013-12-13 23:00:00,38.6,28.6,30.23,North,351,0.0,0.0,67,0.00,,,0.00,VWS V14.01,2013-12-14 04:00:00,
2013-12-13 23:04:00,38.6,27.9,30.25,North,351,0.0,0.0,65,0.00,,,0.00,VWS V14.01,2013-12-14 04:04:00,
2013-12-13 23:05:00,38.9,27.8,30.24,North,351,0.0,0.0,64,0.00,,,0.00,VWS V14.01,2013-12-14 04:05:00,
2013-12-13 23:06:00,38.9,27.8,30.24,North,351,0.0,0.0,64,0.00,,,0.00,VWS V14.01,2013-12-14 04:06:00,
2013-12-13 23:07:00,38.9,27.8,30.24,North,351,0.0,0.0,64,0.00,,,0.00,VWS V14.01,2013-12-14 04:07:00,
2013-12-13 23:08:00,38.9,27.8,30.24,North,351,0.0,0.0,64,0.00,,,0.00,VWS V14.01,2013-12-14 04:08:00,
2013-12-13 23:09:00,38.8,27.3,30.25,North,351,0.0,0.0,63,0.00,,,0.00,VWS V14.01,2013-12-14 04:09:00,
2013-12-13 23:10:00,38.9,27.4,30.24,North,351,0.0,0.0,63,0.00,,,0.00,VWS V14.01,2013-12-14 04:10:00,
2013-12-13 23:11:00,38.9,27.4,30.24,North,351,0.0,0.0,63,0.00,,,0.00,VWS V14.01,2013-12-14 04:11:00,
2013-12-13 23:12:00,38.9,27.4,30.24,North,351,0.0,0.0,63,0.00,,,0.00,VWS V14.01,2013-12-14 04:12:00,
2013-12-13 23:13:00,38.9,27.8,30.24,North,351,0.0,0.0,64,0.00,,,0.00,VWS V14.01,2013-12-14 04:13:00,
2013-12-13 23:14:00,38.9,27.8,30.23,North,351,0.0,0.0,64,0.00,,,0.00,VWS V14.01,2013-12-14 04:14:00,
2013-12-13 23:19:00,39.1,28.0,30.23,North,351,0.0,0.0,64,0.00,,,0.00,VWS V14.01,2013-12-14 04:19:00,
2013-12-13 23:24:00,39.1,28.0,30.23,North,351,0.0,0.0,64,0.00,,,0.00,VWS V14.01,2013-12-14 04:24:00,
2013-12-13 23:29:00,39.1,27.6,30.24,North,351,0.0,0.0,63,0.00,,,0.00,VWS V14.01,2013-12-14 04:29:00,
2013-12-13 23:30:00,38.3,28.3,30.22,North,351,0.0,0.0,67,0.00,,,0.00,VWS V14.01,2013-12-14 04:30:00,
2013-12-13 23:34:00,39.1,27.6,30.24,North,351,0.0,0.0,63,0.00,,,0.00,VWS V14.01,2013-12-14 04:34:00,
2013-12-13 23:39:00,39.2,27.7,30.24,North,351,0.0,0.0,63,0.00,,,0.00,VWS V14.01,2013-12-14 04:39:00,
2013-12-13 23:44:00,39.2,28.4,30.24,North,351,0.0,0.0,65,0.00,,,0.00,VWS V14.01,2013-12-14 04:44:00,
2013-12-13 23:49:00,39.2,28.1,30.24,North,351,0.0,0.0,64,0.00,,,0.00,VWS V14.01,2013-12-14 04:49:00,
2013-12-13 23:54:00,39.1,28.0,30.24,North,351,0.0,0.0,64,0.00,,,0.00,VWS V14.01,2013-12-14 04:54:00,
2013-12-13 23:59:00,39.1,28.3,30.24,North,351,0.0,0.0,65,0.00,,,0.00,VWS V14.01,2013-12-14 04:59:00,